Regional Weather Roundup
Issued by NWS Columbia, SC

Home | Current Version | Previous Version | Text Only | Print | Product List | Glossary On
Versions: 1 2 3 4 5 6 7 8 9 10 11 12 13 14 15 16 17 18 19 20 21 22 23 24 25 26 27 28 29 30 31 32 33 34 35 36 37 38 39 40 41 42 43 44 45 46 47 48 49 50
000
ASUS42 KCAE 240110
RWRCAE
REGIONAL WEATHER ROUNDUP
NATIONAL WEATHER SERVICE COLUMBIA SC
900 PM EDT TUE SEP 23 2014

NOTE: "FAIR" INDICATES FEW OR NO CLOUDS BELOW 12,000 FEET WITH NO
SIGNIFICANT WEATHER AND/OR OBSTRUCTIONS TO VISIBILITY.

NOT ALL STATIONS ARE QUALITY CONTROLLED BY THE NATIONAL
WEATHER SERVICE. USE DATA WITH CAUTION...ESPECIALLY
DEWPOINT OBSERVATIONS.

SCZ001>056-GAZ040-063>065-077-240200-
...UPSTATE SOUTH CAROLINA...

CITY           SKY/WX    TMP DP  RH WIND       PRES   REMARKS
ANDERSON       CLEAR     59  52  77 E10       30.27R
LIBERTY        FAIR      59  54  84 MISG      30.27R
SPARTANBURG    FAIR      59  55  88 NE6       30.28S
CLEMSON        PTCLDY    62  53  72 E5        30.28S
GREENVILLE     PTCLDY    59  52  77 NE8       30.29R
GREENWOOD      PTCLDY    59  53  80 NE8       30.28S
GREER          PTCLDY    57  54  89 NE6       30.28R
ROCK HILL      CLEAR     55  50  83 NE6       30.29S
CHESTER        FAIR      57  50  77 N7        30.33S
LAURENS        CLOUDY    55  55 100 NE6       30.29R


...CENTRAL SOUTH CAROLINA...

CITY           SKY/WX    TMP DP  RH WIND       PRES   REMARKS
COLUMBIA APT   PTCLDY    61  52  72 N8        30.24R
COLUMBIA OWENS PTCLDY    61  53  75 CALM      30.25S
DARLINGTON     MOCLDY    57  52  82 NE10      30.27R
FLORENCE       CLOUDY    58  55  90 NE10      30.24R
MCENTIRE ANGB  CLEAR     59  54  83 N6        30.24S
ORANGEBURG     PTCLDY    62  51  67 NE14G20   30.22R
SUMTER SHAW    MOCLDY    61  50  67 N10       30.22S
NEWBERRY       FAIR      57  52  82 N8        30.29S
AIKEN          MOCLDY    61  59  94 N12       30.27R
BARNWELL       FAIR      63  57  82 NE9       30.22R
MANNING        CLOUDY    61  57  88 N6        30.22R
CAMDEN         FAIR      59  50  72 N9        30.26S
LANCASTER      FAIR      55  54  94 N3        30.28S
WINNSBORO      FAIR      55  52  88 N5        30.26S


...EASTERN AND COASTAL SOUTH CAROLINA...

CITY           SKY/WX    TMP DP  RH WIND       PRES   REMARKS
MYRTLE BEACH   DRIZZLE   61  55  82 NE15      30.18S
N MYRTLE BCH   LGT RAIN  60  57  89 NE17G28   30.18S
CONWAY         RAIN      59  59 100 N10G16    30.21R
MARION         CLOUDY    57  57 100 N8        30.23S
HARTSVILLE     MOCLDY    59  43  55 NE10G18   30.26R
FLORENCE       CLOUDY    58  55  90 NE10      30.24R
DARLINGTON     MOCLDY    57  52  82 NE10      30.27R
CHARLESTON APT LGT RAIN  62  59  90 NE13      30.17S
MOUNT PLEASANT LGT RAIN  63  61  94 N8        30.17R
WALTERBORO     CLOUDY    63  61  94 NE8       30.19S
BEAUFORT       CLOUDY    64  58  80 N14       30.16S


...EASTERN GEORGIA...

CITY           SKY/WX    TMP DP  RH WIND       PRES   REMARKS
AUGUSTA BUSH F PTCLDY    63  56  78 NE10      30.22R
AUGUSTA DANIEL MOCLDY    64  56  75 NE12G20   30.23R
THOMSON        CLOUDY    66  62  85 NE10      30.27R
WASHINGTON     MOCLDY    63  61  94 NE9       30.24S
CLAXTON        MOCLDY    68  64  88 NE8       30.16R
SYLVANIA       CLEAR     68  63  85 NE10      30.19R
STATESBORO     PTCLDY    65  60  82 NE8       30.17R
SAVANNAH       CLOUDY    67  58  72 NE16      30.15R


...SOUTHERN NORTH CAROLINA...

CITY           SKY/WX    TMP DP  RH WIND       PRES   REMARKS
CHARLOTTE      MOCLDY    56  49  77 N8        30.29F
MONROE         CLEAR     55  51  86 NE9       30.27S
WADESBORO      PTCLDY    57  51  81 N7        30.27F
ROCKINGHAM     MOCLDY    56  53  88 NE8G18    30.27R
RUTHERFORDTON  PTCLDY    56  51  82 CALM      30.31S
ASHEVILLE      CLEAR     55  50  83 SE5       30.30F

$$


USA.gov is the U.S. government's official web portal to all federal, state and local government web resources and services.